User: anonymous   Login
Location: Domont
(49.0278°N, 2.3264°E)
Time: 13:16:50
(UTC+00:00)
Language:

XW-2B - Orbit

View from above orbital plane
View from above orbital plane
View from above satellite
View from above satellite

Ground track
Ground track

The orbit data is extracted from the following two-line orbital elements,

1 40911U 15049N   22176.08236840  .00005861  00000-0  27713-3 0  9996
2 40911  97.4902 180.0201 0012237 337.8291  93.0052 15.19708424374013
Epoch (UTC): 25 June 2022 01:58:36
Eccentricity: 0.0012237
inclination: 97.4902°
perigee height: 498 km
apogee height: 515 km
right ascension of ascending node: 180.0201°
argument of perigee: 337.8291°
revolutions per day: 15.19708424
mean anomaly at epoch: 93.0052°
orbit number at epoch: 37401

The dashed part of the orbit path shows where the satellite is in the earth's shadow,  

DLR